This is the latest recevied weather packets stored in our database for station/object K0QED. If no packets are shown the sender has not sent any weather packets the latest 10 day(s).
| Time | Temp. | Humidity | Pressure | Rain* | Wind** | Luminosity | Snow |
|---|---|---|---|---|---|---|---|
| 1777488183 | 5° C | 77% | 1021.1 hPa | 0 mm | - | 27 W/m² | - |
| 1777487881 | 5.56° C | 77% | 1021.1 hPa | 0 mm | - | 38 W/m² | - |
| 1777487579 | 5.56° C | 76% | 1021 hPa | 0 mm | - | 46 W/m² | - |
| 1777487275 | 6.11° C | 73% | 1020.6 hPa | 0 mm | - | 78 W/m² | - |
| 1777486972 | 6.67° C | 74% | 1020.6 hPa | 0 mm | - | 193 W/m² | - |
| 1777486669 | 6.67° C | 74% | 1020.6 hPa | 0 mm | - | 267 W/m² | - |
| 1777486366 | 6.67° C | 74% | 1020.7 hPa | 0 mm | - | 185 W/m² | - |
| 1777486064 | 6.67° C | 74% | 1020.5 hPa | 0 mm | - | 216 W/m² | - |
| 1777485760 | 6.67° C | 75% | 1020.5 hPa | 0 mm | - | 193 W/m² | - |
| 1777485455 | 6.11° C | 76% | 1020.6 hPa | 0 mm | - | 250 W/m² | - |
| 1777485152 | 6.11° C | 77% | 1021.4 hPa | 0 mm | - | 219 W/m² | - |
| 1777484848 | 6.67° C | 76% | 1021.2 hPa | 0 mm | - | 391 W/m² | - |
| 1777484546 | 6.11° C | 79% | 1021.4 hPa | 0 mm | - | 405 W/m² | - |
| 1777484242 | 6.11° C | 79% | 1021.5 hPa | 0 mm | - | 258 W/m² | - |
| 1777483938 | 5.56° C | 80% | 1021.4 hPa | 0 mm | - | 448 W/m² | - |
| 1777483635 | 5° C | 81% | 1021.7 hPa | 0 mm | - | 245 W/m² | - |
| 1777483330 | 5° C | 82% | 1021.9 hPa | 0 mm | - | 101 W/m² | - |
| 1777483026 | 5° C | 83% | 1021.9 hPa | 0 mm | - | 129 W/m² | - |
| 1777482723 | 5° C | 83% | 1021.9 hPa | 0 mm | - | 166 W/m² | - |
| 1777482419 | 5° C | 82% | 1022.1 hPa | 0 mm | - | 147 W/m² | - |
| 1777482116 | 5° C | 83% | 1022.1 hPa | 0 mm | - | 215 W/m² | - |
| 1777481814 | 5° C | 84% | 1022.2 hPa | 0 mm | - | 259 W/m² | - |
| 1777481511 | 4.44° C | 85% | 1022.1 hPa | 0 mm | - | 261 W/m² | - |
| 1777481207 | 4.44° C | 84% | 1022.4 hPa | 0 mm | - | 195 W/m² | - |
| 1777480904 | 4.44° C | 86% | 1022.1 hPa | 0 mm | - | 187 W/m² | - |
* Rain latest hour (hover to see other rain measurements)
** Current wind speed in m/s (hover to see current wind gust speed)